COSMOS 1275 DEB, 42103

Orbit data source: Space-Track

COSMOS 1275 DEB, 42103 is space debris in LEO originally from a launch on Thu, 04 Jun 1981 UTC launched from the Plesetsk Missile And Space Complex (PKMTR). Debris objects in space refer to the collection of defunct objects orbiting the Earth. Examples of debris include non-operational satellites, rocket bodies, and fragments generated from explosions, collisions, or faulty payload assembly.

Loading next visibility...
Identifier
42103, 1981-053PP
Orbit
LEO
Country
Flag of CISCIS
Related business
Manufacturer
Unknown
Mission
Spacecraft
Bus & Motor
Unknown
Mass
Unknown
Launch date (UTC)
1981-06-04 (44 years ago)
Launch vehicle
Unknown
Launch site
Plesetsk Missile And Space Complex (PKMTR)
Object type
Payload
Rocket body
Debris
Shape & HBR
Unknown shape, 0.1 m
Radar Cross Section
Small (<0.1 m²)

Expand to show TLE details & history
Last TLE update: 6 hours ago

TLE from 6 hours ago
0 COSMOS 1275 DEB
1 42103U 81053PP  25292.28544147  .00004356  00000-0  22351-2 0  9995
2 42103  83.1739 127.6733 0029318  61.3532 299.0590 14.14955510610821
Epoch: 2025-10-19T06:51Z
TLE epoch observation values (Epoch: 2025-10-19T06:51:02.143Z)
Latitude
-0.00002°
Longitude
-3.08992°
Altitude
835.188 km
Speed
7.441 km/s
True Right ascension
08h 30m 41s
True Declination
0° 00' 00"
Sunlit
Object was in daylight at epoch
Visualization orbit readout
Latitude
Unknown
Longitude
Unknown
Altitude
Unknown
Speed
Unknown
Apparent Right ascension
Unknown
Apparent Declination
Unknown
Sunlit
N/A
Visualization observer readout
Local Sidereal Time
07:24:21
Azimuth
Unknown
Elevation
Unknown
Doppler factor
Unknown
Orbital elements
Apogee altitude
860.709 km
Perigee altitude
818.388 km
Semi-major axis
7,217.685 km
Eccentricity
0.00293
Inclination
83.1739°
RAAN
127.6733°
Arg. of periapsis
61.3532°
True anomaly
298.76481°
Mean anomaly
299.059°
Eccentric anomaly
298.91196°
Mean motion
3.53954 °/min
Orbital period
101.71 mins
BSTAR
0.0022351
Loading maneuver chart data...
Computing Atmospheric mass density...

Documentation

Showing up to 5 results
|